When you browse on this site, cookies collect data to enhance your experience and personalize the content and advertising you see.
Visit our Privacy Policy to learn more. By continuing to use the site, you agree to this use of cookies and data.
  • In Hungary
  • List of Countries
  • For 7 days
  • Water Temperature
  • Satellite Maps
  • Weather Map
  • News
  • Weather Widgets
  • user-avatar
    Login

    Hourly Weather Manika

    Today, 21 April, Sunday

    Time Temperature Precipitation Wind Pressure Humidity
    00:00 +16°C° 0 mm 1 mps 679 mmHg 94%
    01:00 +15°C° 0 mm 1 mps 679 mmHg 95%
    02:00 +15°C° 0 mm 1 mps 679 mmHg 95%
    03:00 +15°C° 0 mm 1 mps 679 mmHg 94%
    04:00 +15°C° 0 mm 1 mps 679 mmHg 94%
    05:00 +14°C° 0 mm 1 mps 678 mmHg 94%
    06:00 +16°C° 0 mm 1 mps 679 mmHg 85%
    07:00 +19°C° 0 mm 1 mps 680 mmHg 76%
    08:00 +21°C° 0 mm 1 mps 680 mmHg 67%
    09:00 +23°C° 0 mm 1 mps 681 mmHg 56%
    10:00 +26°C° 0 mm 1 mps 681 mmHg 45%
    11:00 +28°C° 0 mm 2 mps 681 mmHg 35%
    12:00 +28°C° 0 mm 2 mps 681 mmHg 34%
    13:00 +29°C° 0 mm 2 mps 680 mmHg 34%
    14:00 +29°C° 0 mm 2 mps 680 mmHg 33%
    15:00 +28°C° 0 mm 2 mps 679 mmHg 41%
    16:00 +26°C° 0 mm 2 mps 679 mmHg 48%
    17:00 +25°C° 0 mm 2 mps 679 mmHg 55%
    18:00 +23°C° 0 mm 2 mps 679 mmHg 65%
    19:00 +21°C° 0 mm 1 mps 679 mmHg 75%
    20:00 +19°C° 0 mm 1 mps 679 mmHg 85%
    21:00 +19°C° 0 mm 1 mps 679 mmHg 88%
    22:00 +18°C° 0 mm 1 mps 679 mmHg 91%
    23:00 +18°C° 0 mm 1 mps 679 mmHg 95%

    Tomorrow, 22 April, Monday

    Time Temperature Precipitation Wind Pressure Humidity
    00:00 +18°C° 0 mm 1 mps 679 mmHg 96%
    01:00 +16°C° 0 mm 1 mps 679 mmHg 96%
    02:00 +16°C° 0 mm 1 mps 679 mmHg 97%
    03:00 +15°C° 0 mm 0 mps 679 mmHg 97%
    04:00 +15°C° 0 mm 0 mps 679 mmHg 98%
    05:00 +14°C° 0 mm 0 mps 679 mmHg 98%
    06:00 +16°C° 0 mm 0 mps 679 mmHg 92%
    07:00 +17°C° 0 mm 0 mps 680 mmHg 87%
    08:00 +19°C° 0 mm 0 mps 681 mmHg 82%
    09:00 +23°C° 0 mm 1 mps 681 mmHg 71%
    10:00 +25°C° 0 mm 1 mps 681 mmHg 61%
    11:00 +27°C° 0 mm 1 mps 682 mmHg 50%
    12:00 +28°C° 0 mm 2 mps 681 mmHg 47%
    13:00 +28°C° 0 mm 2 mps 680 mmHg 44%
    14:00 +29°C° 0 mm 2 mps 680 mmHg 40%
    15:00 +28°C° 0 mm 2 mps 680 mmHg 46%
    16:00 +26°C° 0 mm 2 mps 679 mmHg 51%
    17:00 +25°C° 0 mm 2 mps 679 mmHg 56%
    18:00 +23°C° 0 mm 1 mps 679 mmHg 65%
    19:00 +21°C° 0 mm 1 mps 680 mmHg 73%
    20:00 +20°C° 0 mm 1 mps 680 mmHg 81%
    21:00 +19°C° 0 mm 1 mps 680 mmHg 84%
    22:00 +19°C° 0 mm 1 mps 680 mmHg 86%
    23:00 +18°C° 0 mm 1 mps 680 mmHg 88%

    Day after tomorrow, 23 April, Tuesday

    Time Temperature Precipitation Wind Pressure Humidity
    00:00 +16°C° 0 mm 0 mps 680 mmHg 90%
    01:00 +15°C° 0 mm 0 mps 680 mmHg 92%
    02:00 +15°C° 0 mm 0 mps 679 mmHg 94%
    03:00 +14°C° 0 mm 0 mps 679 mmHg 94%
    04:00 +14°C° 0 mm 0 mps 679 mmHg 93%
    05:00 +14°C° 0 mm 0 mps 679 mmHg 93%
    06:00 +16°C° 0 mm 0 mps 680 mmHg 85%
    07:00 +17°C° 0 mm 0 mps 681 mmHg 77%
    08:00 +19°C° 0 mm 0 mps 681 mmHg 69%
    09:00 +23°C° 0 mm 1 mps 682 mmHg 62%
    10:00 +25°C° 0 mm 1 mps 682 mmHg 55%
    11:00 +27°C° 0 mm 2 mps 682 mmHg 49%
    12:00 +28°C° 0 mm 2 mps 682 mmHg 49%
    13:00 +28°C° 0 mm 2 mps 681 mmHg 48%
    14:00 +28°C° 0 mm 3 mps 681 mmHg 48%
    15:00 +27°C° 0 mm 2 mps 680 mmHg 53%
    16:00 +26°C° 0 mm 2 mps 680 mmHg 58%
    17:00 +25°C° 0 mm 2 mps 680 mmHg 63%
    18:00 +23°C° 0 mm 1 mps 680 mmHg 71%
    19:00 +22°C° 0 mm 1 mps 680 mmHg 80%
    20:00 +20°C° 0 mm 1 mps 681 mmHg 88%
    21:00 +17°C° 0 mm 0 mps 681 mmHg 90%
    22:00 +17°C° 0 mm 0 mps 681 mmHg 93%
    23:00 +17°C° 0 mm 0 mps 681 mmHg 95%

    24 April, Wednesday

    Time Temperature Precipitation Wind Pressure Humidity
    00:00 +16°C° 0 mm 0 mps 681 mmHg 95%
    01:00 +16°C° 0 mm 0 mps 680 mmHg 96%
    02:00 +16°C° 0 mm 0 mps 680 mmHg 96%
    03:00 +16°C° 0 mm 0 mps 680 mmHg 96%
    04:00 +16°C° 0 mm 0 mps 680 mmHg 97%
    05:00 +16°C° 0 mm 0 mps 680 mmHg 97%
    06:00 +17°C° 0 mm 0 mps 681 mmHg 92%
    07:00 +19°C° 0 mm 0 mps 681 mmHg 87%
    08:00 +20°C° 0 mm 0 mps 682 mmHg 82%
    09:00 +21°C° 0 mm 0 mps 682 mmHg 76%
    10:00 +25°C° 0 mm 1 mps 682 mmHg 70%
    11:00 +26°C° 0 mm 1 mps 682 mmHg 64%
    12:00 +26°C° 0.1 mm 1 mps 681 mmHg 65%
    13:00 +26°C° 0.1 mm 1 mps 681 mmHg 65%
    14:00 +26°C° 0.1 mm 1 mps 680 mmHg 65%
    15:00 +26°C° 0.1 mm 1 mps 680 mmHg 68%
    16:00 +25°C° 0.1 mm 1 mps 680 mmHg 71%
    17:00 +25°C° 0.1 mm 1 mps 680 mmHg 74%
    18:00 +23°C° 0.1 mm 1 mps 680 mmHg 80%
    19:00 +22°C° 0.1 mm 1 mps 680 mmHg 86%
    20:00 +19°C° 0.1 mm 0 mps 681 mmHg 92%
    21:00 +18°C° 0 mm 0 mps 681 mmHg 93%
    22:00 +18°C° 0 mm 0 mps 681 mmHg 94%
    23:00 +18°C° 0 mm 0 mps 681 mmHg 94%

    25 April, Thursday

    Time Temperature Precipitation Wind Pressure Humidity
    00:00 +18°C° 0 mm 0 mps 680 mmHg 95%
    01:00 +17°C° 0 mm 0 mps 680 mmHg 96%
    02:00 +17°C° 0 mm 0 mps 680 mmHg 97%
    03:00 +17°C° 0 mm 0 mps 680 mmHg 97%
    04:00 +16°C° 0 mm 0 mps 680 mmHg 97%
    05:00 +16°C° 0 mm 0 mps 680 mmHg 97%
    06:00 +18°C° 0 mm 0 mps 680 mmHg 93%
    07:00 +19°C° 0 mm 0 mps 681 mmHg 88%
    08:00 +21°C° 0 mm 0 mps 682 mmHg 83%
    09:00 +22°C° 0 mm 0 mps 682 mmHg 75%
    10:00 +26°C° 0 mm 1 mps 682 mmHg 67%
    11:00 +28°C° 0 mm 1 mps 682 mmHg 60%
    12:00 +28°C° 0 mm 1 mps 681 mmHg 59%
    13:00 +28°C° 0 mm 1 mps 680 mmHg 58%
    14:00 +28°C° 0 mm 1 mps 679 mmHg 57%
    15:00 +27°C° 0 mm 1 mps 679 mmHg 60%
    16:00 +27°C° 0 mm 1 mps 679 mmHg 64%
    17:00 +26°C° 0 mm 1 mps 679 mmHg 67%
    18:00 +25°C° 0 mm 1 mps 679 mmHg 73%
    19:00 +23°C° 0 mm 1 mps 679 mmHg 80%
    20:00 +21°C° 0 mm 1 mps 679 mmHg 87%
    21:00 +21°C° 0 mm 1 mps 679 mmHg 89%
    22:00 +21°C° 0 mm 1 mps 679 mmHg 92%
    23:00 +20°C° 0 mm 1 mps 679 mmHg 95%

    26 April, Friday

    Time Temperature Precipitation Wind Pressure Humidity
    00:00 +20°C° 0 mm 1 mps 679 mmHg 95%
    01:00 +18°C° 0 mm 0 mps 678 mmHg 96%
    02:00 +17°C° 0 mm 0 mps 678 mmHg 97%
    03:00 +17°C° 0 mm 0 mps 678 mmHg 97%
    04:00 +17°C° 0 mm 0 mps 678 mmHg 97%
    05:00 +17°C° 0 mm 0 mps 678 mmHg 97%
    06:00 +18°C° 0 mm 0 mps 679 mmHg 91%
    07:00 +20°C° 0 mm 0 mps 679 mmHg 85%
    08:00 +21°C° 0 mm 0 mps 680 mmHg 79%
    09:00 +26°C° 0 mm 1 mps 680 mmHg 67%
    10:00 +28°C° 0 mm 1 mps 680 mmHg 56%
    11:00 +31°C° 0 mm 1 mps 681 mmHg 44%
    12:00 +31°C° 0 mm 1 mps 680 mmHg 42%
    13:00 +31°C° 0 mm 2 mps 679 mmHg 39%
    14:00 +32°C° 0 mm 2 mps 679 mmHg 37%
    15:00 +30°C° 0 mm 2 mps 679 mmHg 43%
    16:00 +29°C° 0 mm 2 mps 678 mmHg 49%
    17:00 +28°C° 0 mm 2 mps 678 mmHg 55%
    18:00 +26°C° 0 mm 1 mps 678 mmHg 64%
    19:00 +24°C° 0 mm 1 mps 679 mmHg 72%
    20:00 +22°C° 0 mm 1 mps 679 mmHg 81%
    21:00 +22°C° 0 mm 1 mps 679 mmHg 85%
    22:00 +21°C° 0 mm 1 mps 679 mmHg 89%
    23:00 +21°C° 0 mm 1 mps 679 mmHg 93%
    Show more